[Date Prev][Date Next][Thread Prev][Thread Next] - [Date Index][Thread Index][Author Index]

2 Line ISS Keps 8-29



ISS
1 25544U 98067A   05240.96665303  .00022666  00000-0  17225-3 0  2422
2 25544 051.6440 248.3081 0001376 351.8608 091.2365 15.72212242387132
----
Via the sarex mailing list at AMSAT.ORG courtesy of AMSAT-NA.
To unsubscribe, send "unsubscribe sarex" to Majordomo@amsat.org



AMSAT Top AMSAT Home